Location: Sungai Bunut
(2.6333°N, 113.7333°E)
Time: 17:11:29
(UTC+00:00)

Transit 4A - Pass Details

Date: 03 December 2023
Orbit: 870 x 973 km, 66.8° (Epoch: 04 March)

Event Time Altitude Azimuth Distance (km) Brightness Sun altitude
Rises 23:33:39 0° 330° (NNW) 3,488 10.4 17.1°
Reaches altitude 10° 23:36:13 10° 324° (NW) 2,538 9.7 17.7°
Maximum altitude 23:41:50 49° 251° (WSW) 1,120 8.3 19.0°
Drops below altitude 10° 23:47:25 10° 177° (S) 2,513 10.6 20.2°
Sets 23:49:58 0° 171° (S) 3,451 11.3 20.8°
